DLH560 EDDF-FNBJ

Flight info

Callsign DLH560
Flight time N/A
Altitude 33000
Route ANEKI2L/18 ANEKI Y163 NATOR DCT TRA DCT RIPUS DCT GERSA DCT SOSON DCT ODINA DCT PIDAD DCT TALEP DCT VAREK DCT ERPIN DCT ETOIL/N0466F350 DCT CIRTA UA605 CSO UR978 AS UA604 ILBIP/N0464F370 UA604 DLA UG861 MESIN UY339 LIKAD UR526 VNA
Aircraft A343/H-SDE2E3FGHIJ3J5M1P2RWXYZ/LB1D1

Departure

Time N/A
Airport Frankfurt Main Airport (EDDF)

Arrival

Time 2026-05-06 04:31
Airport Dr. Antonio Agostinho Neto International Airport (FNBJ)
Time Latitude Longitude Altitude Speed Heading
2026-05-06 02:34 4.18482 9.67593 36888 ft 457 kts 160°
2026-05-06 02:34 4.12486 9.69713 36883 ft 457 kts 160°
2026-05-06 02:35 4.06485 9.71835 36885 ft 458 kts 160°
2026-05-06 02:35 4.00476 9.73944 36883 ft 458 kts 162°
2026-05-06 02:36 3.94320 9.75595 36885 ft 458 kts 165°
2026-05-06 02:36 3.88125 9.77118 36884 ft 458 kts 165°
2026-05-06 02:37 3.81925 9.78615 36885 ft 458 kts 166°
2026-05-06 02:37 3.75720 9.80119 36886 ft 458 kts 165°
2026-05-06 02:38 3.69520 9.81628 36884 ft 459 kts 165°
2026-05-06 02:38 3.63321 9.83140 36884 ft 459 kts 165°
2026-05-06 02:39 3.57117 9.84653 36892 ft 459 kts 165°
2026-05-06 02:39 3.50907 9.86166 36891 ft 459 kts 165°
2026-05-06 02:40 3.44697 9.87680 36892 ft 459 kts 165°
2026-05-06 02:40 3.38486 9.89193 36892 ft 459 kts 165°
2026-05-06 02:41 3.32322 9.90694 36893 ft 459 kts 165°
2026-05-06 02:41 3.26108 9.92208 36895 ft 459 kts 165°
2026-05-06 02:42 3.19900 9.93720 36892 ft 459 kts 165°
2026-05-06 02:42 3.13693 9.95232 36893 ft 459 kts 165°
2026-05-06 02:43 3.07481 9.96744 36894 ft 459 kts 165°
2026-05-06 02:43 3.01269 9.98257 36903 ft 459 kts 165°
2026-05-06 02:44 2.95060 9.99768 36906 ft 459 kts 165°
2026-05-06 02:44 2.88856 10.01278 36907 ft 459 kts 165°
2026-05-06 02:45 2.82649 10.02789 36907 ft 459 kts 165°
2026-05-06 02:45 2.76443 10.04299 36908 ft 459 kts 165°
2026-05-06 02:46 2.70234 10.05810 36914 ft 459 kts 165°
2026-05-06 02:46 2.64032 10.07319 36914 ft 459 kts 165°
2026-05-06 02:47 2.57822 10.08830 36917 ft 460 kts 165°
2026-05-06 02:47 2.51599 10.10343 36916 ft 460 kts 165°
2026-05-06 02:48 2.45383 10.11855 36921 ft 460 kts 165°
2026-05-06 02:48 2.39157 10.13369 36937 ft 460 kts 165°
2026-05-06 02:49 2.32943 10.14881 36938 ft 460 kts 165°
2026-05-06 02:49 2.26719 10.16394 36939 ft 460 kts 165°
2026-05-06 02:50 2.20503 10.17905 36937 ft 460 kts 165°
2026-05-06 02:50 2.14280 10.19418 36936 ft 460 kts 165°
2026-05-06 02:51 2.08053 10.20932 36939 ft 460 kts 165°
2026-05-06 02:51 2.01836 10.22442 36939 ft 459 kts 165°
2026-05-06 02:52 1.95668 10.23941 36939 ft 459 kts 165°
2026-05-06 02:52 1.89458 10.25451 36941 ft 459 kts 165°
2026-05-06 02:53 1.83250 10.26961 36942 ft 459 kts 165°
2026-05-06 02:53 1.77050 10.28467 36955 ft 459 kts 165°
2026-05-06 02:54 1.70845 10.29974 36955 ft 459 kts 165°
2026-05-06 02:54 1.64645 10.31480 36959 ft 459 kts 165°
2026-05-06 02:55 1.58446 10.32985 36958 ft 459 kts 165°
2026-05-06 02:55 1.52243 10.34490 36958 ft 459 kts 165°
2026-05-06 02:56 1.46040 10.35996 36960 ft 459 kts 165°
2026-05-06 02:56 1.39836 10.37502 36960 ft 459 kts 165°
2026-05-06 02:57 1.33637 10.39006 36957 ft 459 kts 165°
2026-05-06 02:57 1.27432 10.40512 36958 ft 459 kts 165°
2026-05-06 02:58 1.21229 10.42018 36958 ft 459 kts 165°
2026-05-06 02:58 1.15028 10.43524 36957 ft 459 kts 165°
2026-05-06 02:59 1.08823 10.45030 36957 ft 459 kts 165°
2026-05-06 02:59 1.02617 10.46536 36955 ft 459 kts 165°
2026-05-06 03:00 0.96413 10.48041 36956 ft 459 kts 165°
2026-05-06 03:00 0.90210 10.49546 36958 ft 459 kts 165°
2026-05-06 03:01 0.84004 10.51053 36953 ft 459 kts 165°
2026-05-06 03:01 0.77840 10.52551 36953 ft 459 kts 165°
2026-05-06 03:02 0.71636 10.54058 36949 ft 459 kts 166°
2026-05-06 03:02 0.65421 10.55567 36950 ft 460 kts 166°
2026-05-06 03:03 0.59200 10.57078 36941 ft 460 kts 166°
2026-05-06 03:03 0.52983 10.58588 36941 ft 460 kts 166°
2026-05-06 03:04 0.46768 10.60100 36941 ft 459 kts 166°
2026-05-06 03:04 0.40556 10.61610 36936 ft 460 kts 166°
2026-05-06 03:05 0.34337 10.63120 36937 ft 460 kts 165°
2026-05-06 03:05 0.28109 10.64633 36926 ft 461 kts 165°
2026-05-06 03:06 0.21870 10.66150 36927 ft 461 kts 165°
2026-05-06 03:06 0.15636 10.67665 36928 ft 461 kts 165°
2026-05-06 03:07 0.09402 10.69180 36921 ft 461 kts 165°
2026-05-06 03:07 0.04219 10.70439 36923 ft 461 kts 165°
2026-05-06 03:08 -0.02016 10.71955 36919 ft 461 kts 166°
2026-05-06 03:08 -0.08270 10.73478 36921 ft 463 kts 166°
2026-05-06 03:09 -0.14540 10.74999 36922 ft 464 kts 166°
2026-05-06 03:09 -0.20816 10.76520 36922 ft 464 kts 166°
2026-05-06 03:10 -0.27089 10.78041 36922 ft 464 kts 166°
2026-05-06 03:10 -0.33366 10.79565 36922 ft 464 kts 166°
2026-05-06 03:11 -0.39636 10.81087 36922 ft 464 kts 166°
2026-05-06 03:11 -0.45911 10.82610 36922 ft 464 kts 166°
2026-05-06 03:12 -0.52179 10.84132 36922 ft 464 kts 166°
2026-05-06 03:12 -0.58454 10.85655 36923 ft 464 kts 166°
2026-05-06 03:13 -0.64723 10.87177 36933 ft 464 kts 166°
2026-05-06 03:13 -0.70996 10.88700 36934 ft 464 kts 166°
2026-05-06 03:14 -0.77269 10.90226 36932 ft 464 kts 166°
2026-05-06 03:14 -0.83539 10.91746 36934 ft 464 kts 166°
2026-05-06 03:15 -0.89815 10.93266 36932 ft 464 kts 166°
2026-05-06 03:15 -0.96046 10.94777 36933 ft 464 kts 166°
2026-05-06 03:16 -1.02318 10.96298 36934 ft 464 kts 166°
2026-05-06 03:16 -1.08592 10.97821 36933 ft 464 kts 166°
2026-05-06 03:17 -1.14862 10.99342 36933 ft 464 kts 165°
2026-05-06 03:17 -1.21133 11.00863 36933 ft 463 kts 165°
2026-05-06 03:18 -1.27400 11.02384 36942 ft 463 kts 165°
2026-05-06 03:18 -1.33665 11.03904 36941 ft 463 kts 165°
2026-05-06 03:19 -1.39928 11.05424 36941 ft 463 kts 165°
2026-05-06 03:19 -1.46195 11.06945 36943 ft 463 kts 165°
2026-05-06 03:20 -1.55596 11.09227 36939 ft 464 kts 165°
2026-05-06 03:20 -1.61827 11.10739 36938 ft 464 kts 165°
2026-05-06 03:21 -1.68097 11.12261 36936 ft 464 kts 165°
2026-05-06 03:21 -1.74370 11.13781 36937 ft 464 kts 165°
2026-05-06 03:22 -1.80638 11.15303 36930 ft 464 kts 165°
2026-05-06 03:22 -1.86910 11.16827 36930 ft 464 kts 165°
2026-05-06 03:23 -1.93179 11.18350 36930 ft 463 kts 165°
2026-05-06 03:23 -1.99439 11.19871 36925 ft 463 kts 165°
2026-05-06 03:24 -2.05699 11.21391 36926 ft 463 kts 165°
2026-05-06 03:24 -2.11958 11.22911 36925 ft 463 kts 165°
2026-05-06 03:25 -2.18221 11.24432 36926 ft 463 kts 165°
2026-05-06 03:25 -2.24479 11.25952 36924 ft 463 kts 165°
2026-05-06 03:26 -2.30697 11.27463 36927 ft 463 kts 165°
2026-05-06 03:26 -2.36947 11.28981 36929 ft 462 kts 165°
2026-05-06 03:27 -2.43199 11.30500 36926 ft 462 kts 165°
2026-05-06 03:27 -2.49453 11.32020 36925 ft 462 kts 165°
2026-05-06 03:28 -2.55694 11.33536 36927 ft 461 kts 165°
2026-05-06 03:28 -2.61931 11.35049 36928 ft 461 kts 165°
2026-05-06 03:29 -2.68172 11.36567 36930 ft 462 kts 165°
2026-05-06 03:29 -2.74419 11.38087 36929 ft 462 kts 165°
2026-05-06 03:30 -2.80661 11.39605 36931 ft 462 kts 165°
2026-05-06 03:30 -2.86902 11.41123 36934 ft 462 kts 165°
2026-05-06 03:31 -2.93149 11.42642 36930 ft 462 kts 165°
2026-05-06 03:31 -2.99392 11.44160 36931 ft 462 kts 165°
2026-05-06 03:32 -3.05640 11.45681 36937 ft 463 kts 166°
2026-05-06 03:32 -3.11901 11.47203 36933 ft 463 kts 166°
2026-05-06 03:33 -3.18157 11.48725 36930 ft 463 kts 166°
2026-05-06 03:33 -3.24418 11.50249 36930 ft 463 kts 166°
2026-05-06 03:34 -3.30680 11.51772 36933 ft 463 kts 166°
2026-05-06 03:34 -3.36896 11.53285 36933 ft 463 kts 165°
2026-05-06 03:35 -3.43159 11.54810 36930 ft 463 kts 165°
2026-05-06 03:35 -3.49412 11.56332 36928 ft 463 kts 165°
2026-05-06 03:36 -3.55672 11.57856 36928 ft 463 kts 165°
2026-05-06 03:36 -3.61923 11.59379 36925 ft 463 kts 165°
2026-05-06 03:37 -3.68284 11.60369 36927 ft 463 kts 174°
2026-05-06 03:37 -3.74712 11.60878 36923 ft 464 kts 175°
2026-05-06 03:38 -3.81140 11.61302 36918 ft 462 kts 175°
2026-05-06 03:38 -3.87552 11.61721 36919 ft 461 kts 175°
2026-05-06 03:39 -3.93958 11.62153 36922 ft 462 kts 175°
2026-05-06 03:39 -4.00327 11.62589 36918 ft 462 kts 175°
2026-05-06 03:40 -4.06735 11.63029 36914 ft 462 kts 175°
2026-05-06 03:40 -4.13141 11.63468 36915 ft 461 kts 175°
2026-05-06 03:41 -4.19549 11.63906 36914 ft 462 kts 175°
2026-05-06 03:41 -4.25955 11.64345 36919 ft 462 kts 175°
2026-05-06 03:42 -4.32366 11.64784 36916 ft 462 kts 175°
2026-05-06 03:42 -4.38774 11.65228 36916 ft 461 kts 175°
2026-05-06 03:43 -4.45178 11.65666 36917 ft 461 kts 175°
2026-05-06 03:43 -4.51584 11.66104 36912 ft 462 kts 175°
2026-05-06 03:44 -4.58006 11.66544 36910 ft 463 kts 175°
2026-05-06 03:44 -4.64429 11.66985 36914 ft 463 kts 175°
2026-05-06 03:45 -4.70850 11.67426 36912 ft 463 kts 175°
2026-05-06 03:45 -4.77278 11.67868 36913 ft 462 kts 175°
2026-05-06 03:46 -4.83691 11.68308 36912 ft 462 kts 175°
2026-05-06 03:46 -4.90105 11.68749 36909 ft 463 kts 175°
2026-05-06 03:47 -4.96539 11.69192 36909 ft 464 kts 175°
2026-05-06 03:47 -5.02978 11.69634 36907 ft 464 kts 175°
2026-05-06 03:48 -5.09417 11.70097 36906 ft 463 kts 172°
2026-05-06 03:48 -5.15586 11.71655 36906 ft 460 kts 159°
2026-05-06 03:49 -5.21554 11.73991 36911 ft 460 kts 156°
2026-05-06 03:49 -5.27472 11.76464 36913 ft 462 kts 156°
2026-05-06 03:50 -5.33403 11.78945 36910 ft 462 kts 156°
2026-05-06 03:50 -5.39348 11.81408 36909 ft 462 kts 156°
2026-05-06 03:51 -5.45299 11.83862 36909 ft 462 kts 156°
2026-05-06 03:51 -5.51248 11.86314 36907 ft 462 kts 156°
2026-05-06 03:52 -5.57197 11.88767 36911 ft 462 kts 156°
2026-05-06 03:52 -5.63148 11.91222 36912 ft 463 kts 157°
2026-05-06 03:53 -5.69122 11.93687 36908 ft 464 kts 157°
2026-05-06 03:53 -5.75097 11.96154 36907 ft 464 kts 157°
2026-05-06 03:54 -5.81070 11.98620 36908 ft 464 kts 157°
2026-05-06 03:54 -5.87044 12.01087 36908 ft 464 kts 157°
2026-05-06 03:55 -5.93014 12.03553 36909 ft 464 kts 157°
2026-05-06 03:55 -5.98991 12.06022 36912 ft 464 kts 157°
2026-05-06 03:56 -6.04962 12.08490 36912 ft 464 kts 157°
2026-05-06 03:56 -6.10936 12.10960 36908 ft 464 kts 157°
2026-05-06 03:57 -6.16915 12.13431 36909 ft 464 kts 156°
2026-05-06 03:57 -6.22886 12.15901 36909 ft 465 kts 156°
2026-05-06 03:58 -6.28868 12.18376 36907 ft 465 kts 157°
2026-05-06 03:58 -6.34808 12.20834 36911 ft 465 kts 157°
2026-05-06 03:59 -6.40794 12.23311 36911 ft 466 kts 157°
2026-05-06 03:59 -6.46792 12.25794 36911 ft 466 kts 157°
2026-05-06 04:00 -6.51818 12.27875 36913 ft 466 kts 157°
2026-05-06 04:00 -6.57816 12.30359 36913 ft 466 kts 157°
2026-05-06 04:01 -6.63818 12.32846 36911 ft 466 kts 157°
2026-05-06 04:01 -6.69769 12.35312 36909 ft 466 kts 157°
2026-05-06 04:02 -6.75774 12.37801 36911 ft 467 kts 157°
2026-05-06 04:02 -6.81785 12.40293 36911 ft 468 kts 157°
2026-05-06 04:03 -6.87801 12.42789 36910 ft 467 kts 157°
2026-05-06 04:03 -6.93797 12.45276 36912 ft 466 kts 157°
2026-05-06 04:04 -6.99782 12.47759 36911 ft 465 kts 157°
2026-05-06 04:04 -7.05772 12.50248 36910 ft 466 kts 158°
2026-05-06 04:05 -7.11758 12.52728 36914 ft 465 kts 158°
2026-05-06 04:05 -7.17747 12.55210 36898 ft 465 kts 158°
2026-05-06 04:06 -7.20754 12.56457 36664 ft 472 kts 158°
2026-05-06 04:06 -7.23814 12.57727 36415 ft 478 kts 158°
2026-05-06 04:06 -7.26898 12.59007 36168 ft 479 kts 158°
2026-05-06 04:06 -7.29980 12.60286 35923 ft 480 kts 158°
2026-05-06 04:07 -7.33028 12.61552 35692 ft 481 kts 158°
2026-05-06 04:07 -7.36160 12.62853 35454 ft 481 kts 158°
2026-05-06 04:07 -7.39232 12.64192 35283 ft 480 kts 154°
2026-05-06 04:07 -7.42137 12.65841 34694 ft 481 kts 148°
2026-05-06 04:08 -7.44878 12.67713 34120 ft 482 kts 146°
2026-05-06 04:08 -7.47647 12.69685 33426 ft 482 kts 146°
2026-05-06 04:08 -7.50392 12.71656 32546 ft 487 kts 145°
2026-05-06 04:08 -7.53129 12.73625 31653 ft 493 kts 145°
2026-05-06 04:09 -7.55935 12.75643 30764 ft 498 kts 145°
2026-05-06 04:09 -7.58803 12.77707 29903 ft 502 kts 145°
2026-05-06 04:09 -7.61613 12.79730 29062 ft 503 kts 145°
2026-05-06 04:09 -7.64460 12.81779 28331 ft 502 kts 145°
2026-05-06 04:10 -7.67288 12.83815 27677 ft 498 kts 145°
2026-05-06 04:10 -7.70100 12.85840 27063 ft 495 kts 145°
2026-05-06 04:10 -7.72883 12.87845 26373 ft 486 kts 145°
2026-05-06 04:10 -7.75594 12.89798 25197 ft 475 kts 145°
2026-05-06 04:11 -7.78226 12.91694 24589 ft 452 kts 145°
2026-05-06 04:11 -7.80716 12.93489 24121 ft 429 kts 144°
2026-05-06 04:11 -7.83091 12.95201 23642 ft 411 kts 144°
2026-05-06 04:11 -7.85424 12.96882 23119 ft 413 kts 144°
2026-05-06 04:12 -7.87761 12.98567 22596 ft 413 kts 144°
2026-05-06 04:12 -7.90091 13.00246 22126 ft 410 kts 144°
2026-05-06 04:12 -7.92400 13.01911 21654 ft 406 kts 144°
2026-05-06 04:12 -7.94690 13.03562 21192 ft 403 kts 144°
2026-05-06 04:13 -7.96963 13.05201 20723 ft 400 kts 144°
2026-05-06 04:13 -7.99213 13.06824 20248 ft 397 kts 144°
2026-05-06 04:13 -8.01455 13.08441 19811 ft 396 kts 144°
2026-05-06 04:13 -8.03690 13.10054 19347 ft 395 kts 144°
2026-05-06 04:14 -8.05912 13.11658 18885 ft 395 kts 144°
2026-05-06 04:14 -8.08148 13.13271 18429 ft 395 kts 144°
2026-05-06 04:14 -8.10380 13.14883 17924 ft 395 kts 144°
2026-05-06 04:14 -8.12611 13.16493 17446 ft 394 kts 144°
2026-05-06 04:15 -8.14836 13.18100 16978 ft 392 kts 144°
2026-05-06 04:15 -8.17017 13.19675 16518 ft 390 kts 144°
2026-05-06 04:15 -8.19213 13.21261 16072 ft 387 kts 144°
2026-05-06 04:15 -8.21393 13.22835 15604 ft 384 kts 144°
2026-05-06 04:16 -8.23558 13.24400 15150 ft 381 kts 144°
2026-05-06 04:16 -8.25710 13.25955 14695 ft 379 kts 144°
2026-05-06 04:16 -8.27848 13.27499 14250 ft 377 kts 144°
2026-05-06 04:16 -8.29974 13.29036 13798 ft 375 kts 144°
2026-05-06 04:17 -8.32091 13.30566 13299 ft 373 kts 144°
2026-05-06 04:17 -8.34189 13.32083 12853 ft 369 kts 144°
2026-05-06 04:17 -8.36269 13.33586 12421 ft 366 kts 144°
2026-05-06 04:17 -8.38327 13.35075 11982 ft 363 kts 144°
2026-05-06 04:18 -8.40370 13.36552 11550 ft 360 kts 144°
2026-05-06 04:18 -8.42400 13.38021 11119 ft 358 kts 144°
2026-05-06 04:18 -8.44418 13.39480 10691 ft 356 kts 144°
2026-05-06 04:18 -8.46407 13.40920 10487 ft 346 kts 144°
2026-05-06 04:19 -8.48331 13.42311 10369 ft 334 kts 144°
2026-05-06 04:19 -8.50186 13.43653 10240 ft 323 kts 144°
2026-05-06 04:19 -8.51986 13.44956 10106 ft 313 kts 144°
2026-05-06 04:19 -8.53714 13.46207 9947 ft 296 kts 144°
2026-05-06 04:20 -8.55342 13.47386 9687 ft 283 kts 144°
2026-05-06 04:20 -8.56920 13.48529 9346 ft 274 kts 144°
2026-05-06 04:20 -8.58457 13.49642 9058 ft 273 kts 144°
2026-05-06 04:20 -8.59998 13.50759 8750 ft 273 kts 144°
2026-05-06 04:21 -8.61552 13.51884 8455 ft 275 kts 144°
2026-05-06 04:21 -8.63112 13.53015 8147 ft 277 kts 144°
2026-05-06 04:21 -8.64683 13.54152 7866 ft 279 kts 144°
2026-05-06 04:21 -8.66247 13.55286 7709 ft 273 kts 144°
2026-05-06 04:22 -8.67780 13.56396 7474 ft 270 kts 144°
2026-05-06 04:22 -8.69303 13.57500 7193 ft 269 kts 144°
2026-05-06 04:22 -8.70819 13.58598 6891 ft 268 kts 144°
2026-05-06 04:23 -8.73847 13.60792 6269 ft 267 kts 145°
2026-05-06 04:23 -8.75355 13.61885 5977 ft 266 kts 145°
2026-05-06 04:23 -8.76834 13.62958 5683 ft 265 kts 145°
2026-05-06 04:23 -8.78326 13.64040 5388 ft 263 kts 145°
2026-05-06 04:24 -8.79811 13.65117 5089 ft 262 kts 145°
2026-05-06 04:24 -8.81289 13.66188 4821 ft 259 kts 145°
2026-05-06 04:24 -8.82730 13.67234 4712 ft 251 kts 145°
2026-05-06 04:24 -8.84122 13.68245 4567 ft 243 kts 145°
2026-05-06 04:25 -8.85479 13.69229 4385 ft 238 kts 145°
2026-05-06 04:25 -8.86826 13.70181 4057 ft 234 kts 149°
2026-05-06 04:25 -8.88320 13.70809 3516 ft 234 kts 169°
2026-05-06 04:25 -8.89931 13.70784 3089 ft 233 kts 194°
2026-05-06 04:26 -8.91297 13.69942 2951 ft 234 kts 225°
2026-05-06 04:26 -8.92380 13.68699 2931 ft 236 kts 231°
2026-05-06 04:26 -8.93396 13.67389 2933 ft 236 kts 232°
2026-05-06 04:26 -8.94363 13.66105 2933 ft 223 kts 232°
2026-05-06 04:27 -8.95272 13.64888 2933 ft 210 kts 232°
2026-05-06 04:27 -8.96123 13.63745 2932 ft 197 kts 233°
2026-05-06 04:27 -8.96939 13.62648 2936 ft 194 kts 232°
2026-05-06 04:27 -8.97751 13.61556 2934 ft 194 kts 233°
2026-05-06 04:28 -8.98564 13.60463 2933 ft 194 kts 233°
2026-05-06 04:28 -8.99376 13.59369 2917 ft 195 kts 232°
2026-05-06 04:28 -9.00195 13.58267 2706 ft 195 kts 233°
2026-05-06 04:28 -9.01002 13.57179 2301 ft 193 kts 233°
2026-05-06 04:29 -9.01810 13.56090 1792 ft 193 kts 233°
2026-05-06 04:29 -9.02610 13.55011 1321 ft 190 kts 233°
2026-05-06 04:29 -9.03389 13.53984 1073 ft 173 kts 230°
2026-05-06 04:29 -9.04103 13.53091 910 ft 154 kts 231°
2026-05-06 04:30 -9.04718 13.52281 683 ft 141 kts 234°
2026-05-06 04:30 -9.05260 13.51499 561 ft 125 kts 235°
2026-05-06 04:30 -9.05653 13.50930 562 ft 73 kts 235°
2026-05-06 04:30 -9.05918 13.50547 545 ft 61 kts 235°
2026-05-06 04:31 -9.06147 13.50218 542 ft 53 kts 235°
2026-05-06 04:31 -9.06269 13.50038 544 ft 20 kts 239°
2026-05-06 04:31 -9.06288 13.49901 543 ft 20 kts 270°
2026-05-06 04:31 -9.06280 13.49795 542 ft 5 kts 300°
2026-05-06 04:32 -9.06231 13.49792 542 ft 9 kts 33°
2026-05-06 04:32 -9.06195 13.49847 542 ft 10 kts 57°
2026-05-06 04:32 -9.06143 13.49927 542 ft 19 kts 57°
2026-05-06 04:32 -9.06070 13.50015 542 ft 11 kts 27°
2026-05-06 04:33 -9.06014 13.49993 542 ft 11 kts 320°
2026-05-06 04:33 -9.05938 13.49933 541 ft 16 kts 322°
2026-05-06 04:33 -9.05844 13.49861 542 ft 18 kts 323°
2026-05-06 04:33 -9.05742 13.49784 542 ft 18 kts 323°
2026-05-06 04:34 -9.05660 13.49721 541 ft 10 kts 328°
2026-05-06 04:34 -9.05607 13.49728 542 ft 8 kts 25°
2026-05-06 04:34 -9.05559 13.49755 542 ft 6 kts 28°
2026-05-06 04:34 -9.05538 13.49767 542 ft 0 kts 31°